Dewpoint
25 25 25 26 26 25 26 27 29 31 31 34 35 36 37 38 39 38 41 43 42 44 46 48 50 52 54 56 56 54 52 48 42 43 44 45 44 44 44 44 44 43 42
24 26 26 27 27 25 25 25 26 27 31 32 34 35 37 37 39 40 41 42 44 45 47 49 51 51 52 54 55 54 49 46 44 40 41 41 42 42 42 41 42 41 40
24 25 25 27 26 24 25 25 27 29 32 34 37 37 37 38 39 40 42 44 45 45 46 48 49 51 51 55 53 49 47 45 43 40 39 40 40 40 38 38 37 35 34
24 24 25 26 27 28 28 31 33 33 34 34 35 36 36 38 39 40 43 44 44 46 48 49 51 52 53 54 49 46 45 43 41 39 38 38 37 37 35 32 31 30 30
24 26 27 32 34 37 35 35 36 35 35 35 36 36 37 39 40 42 44 45 46 47 49 50 52 53 56 51 47 45 43 41 40 38 36 35 35 34 32 31 28 28 25
27 31 34 35 37 37 38 38 38 37 37 37 37 38 38 40 42 45 46 46 47 49 50 51 53 56 54 52 49 47 44 40 39 37 36 34 34 33 32 29 26 23 22
34 35 34 36 36 37 38 39 39 39 39 39 40 40 41 41 44 46 48 48 49 50 51 50 50 50 48 47 48 48 47 45 42 38 36 35 33 33 27 24 25 22 22
36 36 36 36 37 39 39 39 39 40 40 41 41 42 43 44 46 48 51 50 49 48 47 47 46 45 45 43 40 39 40 41 41 40 38 35 31 27 26 22 22 22 22
38 38 38 39 39 39 39 40 40 41 41 42 45 49 49 46 49 50 47 45 44 44 44 43 42 42 45 43 38 38 37 38 40 39 37 36 36 33 28 23 22 21 20
38 39 39 40 39 39 40 41 41 42 43 46 45 46 49 47 48 47 44 43 42 42 43 43 45 42 42 39 31 29 27 27 27 28 29 31 31 30 29 22 21 20 18
39 39 39 40 40 41 41 42 44 43 43 43 44 45 45 46 46 46 44 41 40 38 36 35 36 39 38 36 33 26 27 28 29 24 23 22 22 22 23 23 22 22 22
39 40 40 40 41 42 42 44 44 41 40 40 40 42 43 43 44 44 42 40 38 33 34 34 35 38 38 36 33 34 33 28 23 22 21 22 22 24 25 26 27 27 26
41 40 40 41 43 44 44 43 42 41 39 38 38 39 40 41 41 43 41 40 38 33 33 36 38 37 36 34 34 32 29 23 22 21 22 23 23 24 25 26 27 28 29
40 40 41 43 45 45 44 43 42 41 39 38 38 37 37 36 35 34 34 34 36 32 32 29 31 31 31 29 25 24 22 23 23 22 22 23 23 23 23 24 25 26 27
40 42 43 44 42 42 43 42 42 42 39 36 35 34 32 30 31 33 31 28 28 28 26 24 24 24 24 25 25 25 24 23 22 22 22 22 22 22 22 23 24 25 26
42 43 43 42 41 41 40 40 42 41 41 40 39 36 35 36 36 35 33 32 31 29 23 22 23 23 23 23 23 24 24 25 23 23 23 22 22 23 23 24 24 24 23
44 43 43 42 41 39 38 37 37 39 41 40 39 38 37 35 35 33 33 31 30 28 23 23 23 23 23 23 23 23 23 24 24 24 24 24 24 25 24 24 24 24 23
44 44 42 41 41 39 37 36 35 34 34 34 37 35 36 35 34 33 32 29 25 26 24 24 24 24 24 24 24 24 24 25 25 25 25 25 24 24 24 23 24 23 23
43 42 41 41 39 37 36 36 35 33 33 33 33 33 34 34 33 32 30 25 26 26 26 26 25 25 25 26 26 26 26 26 26 26 25 25 25 25 24 25 26 27 25
43 42 41 40 37 36 35 33 32 31 30 29 29 28 28 28 26 27 27 27 27 27 27 27 27 27 28 28 28 28 27 26 26 26 26 26 26 26 25 25 24 24 24
42 42 41 39 37 34 33 31 30 29 28 29 29 30 32 28 28 28 28 28 28 28 28 28 29 29 28 28 27 27 27 27 27 26 26 26 26 26 26 26 26 25 25
42 41 40 38 36 33 31 32 31 30 30 30 30 31 33 29 29 29 29 29 30 30 30 29 29 29 28 28 28 27 27 27 27 27 27 27 27 27 27 26 26 26 25
41 40 38 36 34 33 31 30 29 29 29 29 29 29 30 30 30 30 30 30 30 30 30 30 29 29 29 29 29 28 27 27 27 27 27 27 27 27 27 26 26 26 26
41 39 36 35 33 31 30 29 29 30 29 29 30 30 30 30 31 31 31 30 30 30 30 30 30 29 29 29 29 29 28 28 28 28 28 28 28 27 27 27 27 27 27
40 38 36 34 31 30 29 28 28 29 30 30 30 31 31 31 31 31 30 30 30 30 30 30 30 29 29 28 29 29 32 32 30 30 28 28 27 28 27 27 27 26 25
39 36 34 33 30 29 28 28 29 29 30 30 31 31 31 31 30 30 30 30 30 29 29 29 29 29 29 29 30 33 34 33 31 31 28 28 28 27 27 26 26 26 25
Lifted_Index
3 3 4 4 5 5 6 7 6 5 4 4 4 4 4 4 4 4 4 5 5 4 4 3 2 1 -0 -1 -1 -1 -1 -1 0 2 4 5 5 5 6 7 9 10 10
4 4 4 5 5 6 7 7 6 5 5 4 4 4 5 5 5 5 5 4 4 4 3 2 1 1 0 -1 -1 -1 -1 -1 -0 1 4 5 6 6 6 8 10 11 11
5 5 5 6 6 7 7 7 6 6 6 6 6 6 6 6 6 5 4 4 3 3 3 2 1 1 0 -1 -1 -1 -1 -1 0 2 4 6 7 7 7 8 11 13 13
6 6 6 7 7 7 8 7 7 7 7 8 8 7 7 6 5 4 3 3 2 2 2 2 1 0 -0 -1 -1 -1 -1 -0 1 2 4 6 7 8 8 8 10 12 14
7 7 7 8 8 8 8 8 8 8 8 8 8 7 6 5 4 3 2 2 2 2 1 1 0 -0 -1 -1 -1 -1 -0 1 2 3 4 5 7 8 8 9 10 12 14
8 8 8 8 8 9 9 9 9 9 9 8 7 6 5 4 3 3 2 1 1 1 0 0 0 -0 0 1 1 2 2 3 4 4 5 6 7 8 9 10 11 13 14
8 8 9 9 9 10 10 10 10 9 8 8 7 6 5 4 3 3 2 1 1 0 -0 -0 0 1 2 4 5 5 5 5 5 6 6 8 9 11 12 13 14 15 16
8 9 9 10 10 10 10 9 9 9 9 8 7 6 4 3 3 3 2 1 1 1 1 1 1 3 4 5 6 7 8 7 8 9 10 11 13 14 15 16 16 17 18
9 9 10 10 10 10 9 9 9 9 9 8 6 5 4 4 4 3 3 2 3 3 3 3 3 4 5 5 6 7 8 9 10 12 13 15 16 17 17 17 18 18 18
9 10 10 10 9 9 9 9 10 10 9 8 6 5 5 5 5 4 4 4 5 5 5 5 5 5 5 6 6 7 7 9 11 13 15 17 18 18 18 19 18 17 17
10 10 9 9 9 9 9 10 10 10 9 8 7 7 7 7 6 5 5 5 5 5 5 6 6 6 6 6 7 8 9 11 13 15 16 17 18 19 19 19 18 17 16
9 9 8 8 8 9 9 10 10 10 9 8 7 8 8 7 6 5 5 5 5 5 5 6 7 7 8 9 10 12 13 15 16 17 17 18 18 18 18 18 17 16 16
8 8 8 8 8 9 9 9 9 8 7 7 6 6 6 6 5 5 4 5 5 6 7 9 10 11 13 14 15 16 16 17 16 16 17 17 17 17 17 16 16 15 15
7 7 8 8 8 9 8 8 8 7 6 5 5 5 5 5 5 5 6 7 8 9 11 13 14 15 15 16 17 17 17 16 16 16 16 16 17 16 16 16 15 14 14
6 7 8 8 8 8 8 8 8 6 5 4 4 4 5 6 7 7 9 10 12 13 13 14 15 15 15 16 16 16 16 16 16 16 16 16 16 16 15 15 15 14 13
7 7 8 8 8 8 8 8 8 6 5 5 6 7 8 9 10 11 12 13 14 14 13 13 14 14 14 15 15 16 16 16 16 16 16 16 15 15 15 15 14 13 13
7 8 8 8 7 7 6 6 7 7 8 9 10 11 12 13 13 13 14 14 14 13 13 13 13 14 14 15 15 15 16 16 16 16 16 15 15 14 14 14 14 13 12
8 8 8 8 7 6 6 6 8 10 11 12 13 14 14 14 14 14 14 14 13 13 13 13 14 14 15 15 15 15 16 16 16 16 15 15 15 14 14 14 14 13 13
8 8 8 7 6 6 6 8 10 12 13 14 14 14 14 14 14 14 14 13 13 13 13 14 14 15 15 15 15 15 16 16 15 15 15 15 15 14 14 14 14 14 13
8 8 8 7 6 6 7 9 12 13 14 14 14 14 14 14 14 14 14 13 13 14 14 14 15 15 15 15 15 15 15 15 15 15 15 15 15 15 14 14 14 14 14
8 8 7 6 6 6 7 10 13 14 14 14 14 15 15 14 14 14 14 14 14 14 15 15 15 15 15 15 15 15 15 15 15 15 15 15 15 15 14 14 14 14 14
9 8 7 6 6 7 8 11 14 14 14 14 15 15 15 14 14 14 15 15 15 15 15 15 15 15 15 15 15 15 15 15 15 15 15 15 15 14 14 14 14 14 14
9 8 7 6 6 7 10 13 14 14 14 15 15 15 15 15 15 15 15 15 15 16 16 16 16 16 16 16 16 16 16 16 16 15 15 15 15 14 14 14 14 14 14
9 8 6 6 6 8 11 14 15 15 15 15 15 15 15 15 15 15 15 15 16 16 16 16 16 16 16 16 17 17 16 16 16 16 16 15 15 14 14 14 14 14 13
8 8 6 6 7 9 12 14 15 15 15 15 15 15 15 15 15 15 15 16 16 16 16 16 16 16 16 17 17 17 17 17 17 17 16 15 15 14 14 13 13 13 13
9 8 6 6 7 10 13 14 15 15 15 15 15 15 15 15 15 15 16 16 16 16 16 16 16 17 17 17 17 17 17 17 17 17 16 15 15 14 13 13 13 13 13